Starlink 35795

operational
NORAD ID: 66366 Int'l Des: 2025-254 Owner: SPXS Country: US Constellation: starlink
LEOCIRCULAR

Starlink 35795について

説明を読み込み中...

リアルタイム位置

3D地球を読み込み中...

次回通過

高度履歴

Altitude vs Time

uPlot chart will show altitude changes over time

軌道要素

1 66366C 25254X 25311.11715278 .00521100 00000+0 77080-3 0 3110
2 66366 53.1599 93.7256 0009203 263.0314 117.9822 16.03602538 11
Epoch: Nov 7, 2025 • Age: 24 hours

現在のステータス

高度 265.0 km
速度 7.75 km/s
衛星直下点 -18.05°S, 34.3°E
打ち上げ日 Nov 6, 2025
運用期間 1 days
タイプ internet

技術仕様

分類 Payload
質量 575.00 kg
乾燥質量 530.00 kg
総質量 575.00 kg
長さ 0.30 m
直径 4.10 m
スパン 29.00 m
形状 Box + pan
製造者 SPXS
バスタイプ Starlink V2MO
フェーズステータス In Orbit
所有者/国 SPXS/US

大規模コンステレーション

Loading constellations...